Regional Weather Roundup
Issued by NWS

Home | Current Version | Previous Version | Graphics & Text | Print | Product List | Glossary Off
Versions: 1 2 3 4 5 6 7 8 9 10 11 12 13 14 15 16 17 18 19 20 21 22 23 24 25 26 27 28 29 30 31 32 33 34 35 36 37 38 39 40 41 42 43 44 45 46 47 48 49 50

844
ASUS43 KDMX 281608
RWRIA

WEATHER ROUNDUP FOR IOWA
NATIONAL WEATHER SERVICE DES MOINES IA
1100 AM CDT SUN AUG 28 2016

NOTE: "FAIR" INDICATES FEW OR NO CLOUDS BELOW 12,000 FEET WITH NO
SIGNIFICANT WEATHER AND/OR OBSTRUCTIONS TO VISIBILITY.

* - THESE STATIONS ARE NOT NWS STATIONS...THUS NOT UNDER NWS
QUALITY CONTROL.  THEY ALSO DO NOT REPORT WEATHER SUCH
AS PRECIPITATION OR FOG.

IAZ001>003-012>014-020>022-031>034-043>046-281700-
   NORTHWEST IOWA

CITY           SKY/WX    TMP DP  RH WIND       PRES   REMARKS
CARROLL *      SUNNY     79  72  78 VRB6      30.14R HX  82
CHEROKEE *     SUNNY     79  73  81 S8        30.11S HX  83
DENISON *      HAZE      81  73  78 S8        30.11R VSB<1/4 HX  85
LE MARS *      SUNNY     81  72  74 S12       30.10R HX  84
ORANGE CITY *  SUNNY     79  72  78 S9        30.11S HX  82
SHELDON *      MOSUNNY   79  73  83 S10       30.10S HX  82
SIOUX CITY     SUNNY     80  72  76 SE9       30.08S HX  84
SPENCER        SUNNY     78  69  73 S9        30.13S HX  80
STORM LAKE *   SUNNY     77  72  83 SE9       30.14R
$$

IAZ055>058-069>071-079>083-090>094-281700-
   SOUTHWEST IOWA

CITY           SKY/WX    TMP DP  RH WIND       PRES   REMARKS
ATLANTIC *     CLOUDY    81  73  78 SE5       30.13S HX  85
AUDUBON *      SUNNY     82  75  78 SE7       30.15S HX  89
CLARINDA *       N/A     84  75  74 MISG      30.15S HX  92
COUNCIL BLFS * MOSUNNY   79  73  83 SE8       30.12S HX  82
CRESTON *      MOSUNNY   82  75  78 SE7       30.17R HX  89
HARLAN  *      SUNNY     81  73  78 S7        30.16S HX  85
LAMONI         SUNNY     81  74  79 SE5       30.15S HX  86
RED OAK *      MOSUNNY   82  75  78 SE8       30.12S HX  89
SHENANDOAH *   MOSUNNY   82 -31   1 SE7       30.12S
$$

IAZ047>049-059>061-072>074-084-281700-
   CENTRAL IOWA

CITY           SKY/WX    TMP DP  RH WIND       PRES   REMARKS
AMES           SUNNY     80  74  81 SE13      30.15S HX  85
ANKENY *         N/A    N/A N/A N/A MISG        N/A
BOONE *        SUNNY     79  72  78 SE10      30.15R HX  82
CHARITON *       N/A     82  75  78 MISG      30.16R HX  89
DES MOINES     PTSUNNY   82  73  74 S7        30.14S HX  87
GRINNELL*      MOSUNNY   81  71  72 SE10      30.18R HX  84
KNOXVILLE *    SUNNY     82  73  74 VRB5      30.14S HX  88
MARSHALLTOWN   SUNNY     79  72  79 SE10      30.16S HX  82
NEWTON *       SUNNY     81  75  83 SE9       30.15S HX  86
PERRY *          N/A     80  76  87 SE6       30.15S HX  84
$$

IAZ004>006-015-016-023>025-035-036-281700-
   NORTH CENTRAL IOWA

CITY           SKY/WX    TMP DP  RH WIND       PRES   REMARKS
ALGONA *       SUNNY     77  72  83 S8G14     30.15S
ESTHERVILLE    SUNNY     75  71  87 SE10      30.14S
FORT DODGE *   SUNNY     79  72  78 S7        30.16S HX  82
MASON CITY     SUNNY     76  70  82 SE9       30.19R
FOREST CITY *    N/A    N/A N/A N/A MISG        N/A
WEBSTER CITY * SUNNY     79  73  83 S8        30.14R HX  82
IOWA FALLS *     N/A     79  71  76 E8        30.19R HX  81
$$

IAZ007>011-017>019-026>030-037>042-050>054-066-281700-
   NORTHEAST IOWA

CITY           SKY/WX    TMP DP  RH WIND       PRES   REMARKS
CEDAR RAPIDS   SUNNY     80  74  81 SE7       30.17S HX  85
CHARLES CITY * PTSUNNY   77  73  88 S8        30.19S
CLINTON *      SUNNY     80  75  84 NE6       30.20R HX  85
DECORAH *      MOSUNNY   75  70  83 VRB5      30.19S
DUBUQUE        SUNNY     78  69  73 E8        30.21S HX  80
MONTICELLO *   MOSUNNY   79  72  78 E8        30.19S HX  82
OELWEIN *      CLOUDY    77  72  83 SE10      30.20S
WATERLOO       CLOUDY    77  69  76 SE9       30.17S
$$

IAZ064-065-067-068-078-281700-
   EAST CENTRAL IOWA

CITY           SKY/WX    TMP DP  RH WIND       PRES   REMARKS
DAVENPORT      SUNNY     83  74  74 E6        30.19R HX  89
IOWA CITY      MOSUNNY   82  72  71 E7        30.18S HX  87
MT. PLEASANT * PTSUNNY   87  76  69 SE3       30.18R HX  97
MUSCATINE *    SUNNY     82  73  74 SE7       30.18R HX  88
QUAD CITIES    SUNNY     83  74  74 VRB5      30.18R HX  89
$$

IAZ062-063-075>077-085>089-095>099-281700-
   SOUTHEAST IOWA

CITY           SKY/WX    TMP DP  RH WIND       PRES   REMARKS
BURLINGTON     MOSUNNY   81  74  79 S5        30.18R HX  86
FAIRFIELD *    MOSUNNY   82  73  74 CALM      30.17R HX  88
FORT MADISON * SUNNY     82  75  78 S6        30.19R HX  89
KEOKUK *       SUNNY     81  73  78 SE7       30.17S HX  85
OSKALOOSA *    PTSUNNY   81  74  78 E6        30.17S HX  86
CENTERVILLE *    N/A     84  73  70 CALM      30.18R HX  91
OTTUMWA        SUNNY     82  73  74 VRB3      30.16S HX  87
WASHINGTON *   SUNNY     82  75  78 SE6       30.18S HX  89
$$

ABBREVIATIONS USED IN REMARKS
   TC - TEMPERATURES IN CELSIUS
  WCI - WIND CHILL INDEX
   HX - HEAT INDEX
  VSB - VISIBILITY
$$





USA.gov is the U.S. government's official web portal to all federal, state and local government web resources and services.